Home   Weather   Gronau (Westfalen)   Past weeks

Flag for Germany Past Weather in Gronau (Westfalen), North Rhine-Westphalia, Germany — Yesterday and Last 2 Weeks

Now
18 °F

Clear.


Feels Like: 18 °F
Forecast: 18 / 33 °F
Wind: 1 mph from Northeast

Location: Twenthe

Current Time: Jan 22, 2017 at 9:25:17 am

Latest Report: Jan 22, 2017 at 7:00 am


Visibility: 0 mi

Pressure: 30.35 "Hg

Humidity: 96%

Dew Point: 17 °F

Location of Gronau (Westfalen)Location

Past Weather in Gronau (Westfalen) — Graph

°F

Gronau (Westfalen) Temperature Yesterday

Maximum temperature yesterday: 38 °F (at 3:00 pm)
Minimum temperature yesterday: 27 °F (at 3:00 am)
Average temperature yesterday: 31 °F

High & Low Weather Summary for the Past Weeks

 TemperatureHumidityPressure
High48 °F (Jan 11, 2:00 pm)100% (Jan 7, 8:00 pm)30.75 "Hg (Jan 7, 8:00 pm)
Low18 °F (Jan 22, 7:00 am)48% (Jan 20, 2:00 pm)28.97 "Hg (Jan 13, 2:00 am)
Average32 °F91%30.20 "Hg
* Reported Jan 7 7:00 am — Jan 22 7:00 am, Gronau (Westfalen), Weather by CustomWeather, © 2017

Note: Actual official high and low records may vary slightly from our data, if they occured in-between our weather recording intervals... More about our weather records

Advertising

Gronau (Westfalen) Weather History for the Previous 24 Hours

Scroll right to see more
 ConditionsComfort  
Time TempWeatherWind HumidityBarometerVisibility
7:00 am
Sun, Jan 22
18 °FClear.1 mph96%30.35 "Hg0 mi
6:00 am19 °FClear.No wind97%30.36 "Hg3 mi
5:00 am20 °FClear.No wind93%30.36 "Hg7 mi
4:00 am20 °FClear.1 mph92%30.37 "Hg7 mi
3:00 am22 °FFog.1 mph95%30.37 "Hg4 mi
2:00 am22 °FFog.1 mph100%30.37 "Hg5 mi
1:00 am24 °FClear.No wind94%30.38 "Hg6 mi
12:00 am25 °FClear.1 mph92%30.38 "Hg7 mi
11:00 pm
Sat, Jan 21
27 °FClear.1 mph90%30.38 "Hg7 mi
10:00 pm31 °FClear.2 mph84%30.38 "Hg9 mi
9:00 pm33 °FClear.3 mph79%30.37 "Hg11 mi
8:00 pm33 °FClear.3 mph82%30.38 "Hg11 mi
7:00 pm31 °FClear.3 mph86%30.38 "Hg9 mi
6:00 pm30 °FClear.2 mph90%30.40 "Hg9 mi
5:00 pm34 °FClear.1 mph81%30.40 "Hg12 mi
4:00 pm37 °FSunny.3 mph75%30.39 "Hg13 mi
3:00 pm38 °FSunny.3 mph74%30.40 "Hg14 mi
2:00 pm37 °FSunny.3 mph76%30.42 "Hg11 mi
1:00 pm37 °FSunny.3 mph77%30.44 "Hg9 mi
12:00 pm35 °FOvercast.2 mph84%30.46 "Hg7 mi
11:00 am33 °FFog.2 mph88%30.48 "Hg6 mi
10:00 am31 °FFog.3 mph96%30.48 "Hg3 mi
9:00 am28 °FPassing clouds.2 mph96%30.48 "Hg2 mi
Weather by CustomWeather, © 2017

See weather overviewHow to use our weather pages